sat.trackr.live / text

‹ back to catalog

STARLINK-34997

NORAD 65418 · 2025-192Q

PAYLOAD ACTIVE UNKNOWN

§ Identity

Operator
Country
US
Launch date
2025-08-31
Launch site
AFETR
Launch vehicle
Mass (kg)
RCS (m²)

Purposes: comms

External: N2YO · Heavens-Above · Gunter

§ Orbital elements

Epoch: 2026-09-20T16:12:08.430912Z

Period
93.85 min
Inclination
53.1570°
Eccentricity
0.0001690
Mean motion
15.34416923 rev/d
Perigee alt
461.5 km
Apogee alt
463.8 km
Semi-major
6,840.8 km
B*
6.7516e-4
RAAN
44.8019°
Arg perigee
96.2917°
Mean anomaly
263.8278°
Rev number
5,926

§ Raw data

STARLINK-349971 65418U 25192Q   26263.67509758  .00022516  00000+0  67516-3 0  99922 65418  53.1570  44.8019 0001690  96.2917 263.8278 15.34416923 59269

JSON: /api/v1/satellites/65418 · /tle

For live sub-satellite position, see the globe view (requires WebGL).

§ Visibility from observer

Set your observer location to see the next 7 days of passes ≥ 10°. The values pass through the URL so the page stays shareable.

No JS? Fill the form by hand. The geolocation button needs JavaScript.